Abraham Gonzalez, Mexico

4:09 PM CST on December 06, 2016 (GMT -0600)
Durango

Weather History for MMDO - October, 2012

Change the Weather History Date:

Tuesday, October 16, 2012

  Actual Average Record
Temperature  
Mean Temperature 66 °F -  
Max Temperature 80 °F 79 °F 88 °F (2014)
Min Temperature 53 °F 48 °F 41 °F (2011)
Cooling Degree Days 2    
Growing Degree Days 16 (Base 50)    
Moisture  
Dew Point 55 °F    
Average Humidity 72    
Maximum Humidity 100    
Minimum Humidity 30    
Precipitation  
Precipitation 0.00 in - - ()
Sea Level Pressure  
Sea Level Pressure 30.00 in    
Wind  
Wind Speed 2 mph ()    
Max Wind Speed 16 mph    
Max Gust Speed -    
Visibility 7.0 miles    
Events Fog    
Averages and records for this station are not official NWS values.
T = Trace of Precipitation, MM = Missing Value Source: Averaged Metar Reports

Daily Weather History Graph

Daily Weather History Graph

Search for Another Location

Airport or City:

Trip Planner

Search our weather history database for the weather conditions in past years. The results will help you decide how hot, cold, wet, or windy it might be!

Date:

Astronomy

Oct. 16, 2012 Rise Set
Actual Time 7:56 AM CDT 7:30 PM CDT
Civil Twilight 7:33 AM CDT 7:53 PM CDT
Nautical Twilight 7:07 AM CDT 8:19 PM CDT
Astronomical Twilight 6:40 AM CDT 8:45 PM CDT
Moon 9:08 AM CDT (10/16) 8:32 PM CDT (10/16)
Length of Visible Light 12h 19m
Length of Day
11h 33m
New Moon, 2% of the Moon is Illuminated
Oct 16
New Moon
Oct 21
First Quarter
Oct 29
Full
Nov 6
Last Quarter
Nov 13
New

Hourly Weather History & Observations

Time (CDT) Temp. Dew Point Humidity Pressure Visibility Wind Dir Wind Speed Gust Speed Precip Events Conditions
12:58 AM 60 °F 58 °F 89% 29.87 in 6 mi Calm Calm - -   Overcast
5:50 AM 57.2 °F 55.4 °F 94% 30.15 in 10.0 mi Calm Calm - N/A   Mostly Cloudy
6:48 AM 55.4 °F 51.8 °F 88% 29.88 in 10.0 mi Calm Calm - N/A   Scattered Clouds
6:55 AM 56 °F 55 °F 95% 29.86 in 6 mi Calm Calm - -   Scattered Clouds
7:20 AM 53.6 °F 51.8 °F 94% 30.16 in 0.2 mi Calm Calm - N/A Fog Fog
7:45 AM 53.6 °F 53.6 °F 100% 30.16 in 0.1 mi Calm Calm - N/A Fog Fog
8:16 AM 53.6 °F 53.6 °F 100% 30.16 in 0.5 mi Calm Calm - N/A Fog Fog
8:44 AM 55.4 °F 53.6 °F 94% 30.17 in 1.5 mi Calm Calm - N/A   Scattered Clouds
9:02 AM 55.4 °F 53.6 °F 94% 30.17 in 0.2 mi Calm Calm - N/A Fog Fog
9:44 AM 59.0 °F 57.2 °F 94% 29.86 in 1.0 mi Calm Calm - N/A   Partly Cloudy
9:55 AM 59 °F 57 °F 89% 29.90 in 3 mi SE 2.2 mph - -   Overcast
10:04 AM 59.0 °F 57.2 °F 94% 30.18 in 1.0 mi Calm Calm - N/A   Overcast
10:47 AM 60.8 °F 59.0 °F 94% 30.19 in 2.5 mi Calm Calm - N/A   Overcast
11:09 AM 60.8 °F 59.0 °F 94% 30.19 in 3.0 mi Calm Calm - N/A   Overcast
11:47 AM 62.6 °F 57.2 °F 82% 30.19 in 4.0 mi ESE 5.8 mph - N/A   Overcast
12:00 PM 66.2 °F 59.0 °F 78% 30.18 in 7.0 mi Calm Calm - N/A   Mostly Cloudy
12:50 PM 69.8 °F 57.2 °F 64% 29.80 in 10.0 mi Calm Calm - N/A   Scattered Clouds
12:55 PM 69 °F 55 °F 52% 29.86 in 12 mi SE 2.2 mph - -   Scattered Clouds
1:47 PM 84.2 °F 51.8 °F 33% 30.15 in 10.0 mi SW 4.6 mph - N/A   Scattered Clouds
2:43 PM 77.0 °F 55.4 °F 47% 30.10 in 10.0 mi SSE 10.4 mph - N/A   Scattered Clouds
3:46 PM 77.0 °F 55.4 °F 47% 29.70 in 10.0 mi WSW 6.9 mph - N/A   Mostly Cloudy
3:55 PM 78 °F 53 °F 30% 29.73 in 19 mi SSW 2.2 mph - -   Overcast
4:46 PM 69.8 °F 51.8 °F 53% 30.08 in 12.0 mi SSW 13.8 mph - N/A   Mostly Cloudy
5:46 PM 73.4 °F 51.8 °F 47% 30.08 in 12.0 mi SSW 16.1 mph - N/A   Mostly Cloudy
6:49 PM 71.6 °F 51.8 °F 50% 29.73 in 12.0 mi WSW 11.5 mph - N/A   Mostly Cloudy
6:55 PM 72 °F 53 °F 40% 29.68 in 25 mi WNW 6.7 mph - -   Partly Cloudy
7:44 PM 68.0 °F 51.8 °F 56% 30.11 in 12.0 mi WSW 13.8 mph - N/A   Mostly Cloudy
8:48 PM 68.0 °F 51.8 °F 56% 30.14 in 12.0 mi WSW 11.5 mph - N/A   Scattered Clouds
9:48 PM 64.4 °F 53.6 °F 68% 29.84 in 10.0 mi SW 11.5 mph - N/A   Partly Cloudy
9:55 PM 65 °F 53 °F 55% 29.73 in 6 mi WSW 4.5 mph - -